Dawson, Yukon Territory

6:30 PM PDT on March 29, 2017 (GMT -0700)
Dawson

Weather History for CYDA - September, 2014

Change the Weather History Date:

Monday, September 1, 2014

  Actual Average Record
Temperature  
Mean Temperature 41 °F -  
Max Temperature 56 °F 49 °F 64 °F (2001)
Min Temperature 26 °F 31 °F 26 °F (2008)
Degree Days  
Heating Degree Days 24    
Moisture  
Dew Point 30 °F    
Average Humidity 62    
Maximum Humidity 100    
Minimum Humidity 22    
Precipitation  
Precipitation 0.02 in - - ()
Sea Level Pressure  
Sea Level Pressure 29.87 in    
Wind  
Wind Speed 3 mph ()    
Max Wind Speed 9 mph    
Max Gust Speed -    
Visibility 20.0 miles    
Events      
Averages and records for this station are not official NWS values.
T = Trace of Precipitation, MM = Missing Value Source: Averaged Metar Reports

Daily Weather History Graph

Daily Weather History Graph

Search for Another Location

Airport or City:

Trip Planner

Search our weather history database for the weather conditions in past years. The results will help you decide how hot, cold, wet, or windy it might be!

Date:

Astronomy

Sep. 01, 2014 Rise Set
Actual Time 6:59 AM PDT 9:31 PM PDT
Civil Twilight 6:06 AM PDT 10:23 PM PDT
Nautical Twilight 4:52 AM PDT 11:36 PM PDT
Astronomical Twilight 2:49 AM PDT 1:59 AM PDT
Moon 4:21 PM PDT (9/1) 11:09 PM PDT (9/1)
Length of Visible Light 16h 17m
Length of Day
14h 31m
Waxing Crescent, 43% of the Moon is Illuminated
Sep 1
Waxing Crescent
Sep 2
First Quarter
Sep 8
Full
Sep 15
Last Quarter
Sep 23
New

Hourly Weather History & Observations

Time (PDT) Temp. Windchill Dew Point Humidity Pressure Visibility Wind Dir Wind Speed Gust Speed Precip Events Conditions
2:00 AM 32 °F - 29 °F 85% 29.85 in - NNE 2.3 mph - -  
5:00 AM 28 °F - 26 °F 89% 29.89 in - North 1.2 mph - -  
6:00 AM 26.6 °F - 26.6 °F 100% 29.91 in 20.0 mi Variable 2.3 mph - N/A   Partly Cloudy
7:00 AM 26.6 °F - 24.8 °F 93% 29.91 in 20.0 mi Calm Calm - N/A   Partly Cloudy
8:00 AM 27 °F - 25 °F 88% 29.92 in - Calm Calm - -  
8:00 AM 26.6 °F - 24.8 °F 93% 29.92 in 20.0 mi Calm Calm - N/A   Partly Cloudy
9:00 AM 32.0 °F - 30.2 °F 93% 29.92 in 20.0 mi East 2.3 mph - N/A   Clear
10:00 AM 35.6 °F - 32.0 °F 87% 29.92 in 20.0 mi South 2.3 mph - N/A   Clear
11:00 AM 41 °F - 32 °F 61% 29.91 in - SW 4.6 mph - -  
11:00 AM 41.0 °F 37.1 °F 32.0 °F 70% 29.91 in 20.0 mi SW 5.8 mph - N/A   Partly Cloudy
12:00 PM 46.4 °F 41.9 °F 30.2 °F 53% 29.90 in 20.0 mi SW 9.2 mph - N/A   Partly Cloudy
1:00 PM 50.0 °F - 28.4 °F 43% 29.89 in 20.0 mi SW 4.6 mph - N/A   Partly Cloudy
2:00 PM 52 °F - 27 °F 25% 29.87 in - WSW 3.5 mph - -  
2:00 PM 51.8 °F - 28.4 °F 41% 29.87 in 20.0 mi West 3.5 mph - N/A   Mostly Cloudy
3:00 PM 53.6 °F - 30.2 °F 41% 29.86 in 20.0 mi Variable 3.5 mph - N/A   Scattered Clouds
4:00 PM 53.6 °F - 32.0 °F 44% 29.85 in 20.0 mi West 3.5 mph - N/A   Mostly Cloudy
5:00 PM 56 °F - 28 °F 22% 29.82 in - South 5.8 mph - -  
5:00 PM 55.4 °F - 30.2 °F 38% 29.82 in 20.0 mi SSW 5.8 mph - N/A   Mostly Cloudy
6:00 PM 55.4 °F - 30.2 °F 38% 29.81 in 20.0 mi WSW 4.6 mph - N/A   Mostly Cloudy
7:00 PM 55.4 °F - 28.4 °F 36% 29.80 in 20.0 mi SSW 6.9 mph - N/A   Mostly Cloudy
8:00 PM 50 °F - 33 °F 39% 29.79 in - SW 2.3 mph - -  
8:00 PM 48.2 °F - 35.6 °F 62% 29.80 in 20.0 mi WSW 3.5 mph - N/A   Scattered Clouds
11:00 PM 41 °F - 36 °F 74% 29.79 in - ENE 2.3 mph - -